Regional Weather Roundup
Issued by NWS

Home | Current Version | Previous Version | Text Only | Print | Product List | Glossary On
Versions: 1 2 3 4 5 6 7 8 9 10 11 12 13 14 15 16 17 18 19 20 21 22 23 24 25 26 27 28 29 30 31 32 33 34 35 36 37 38 39 40 41 42 43 44 45 46 47 48 49 50
000
ASUS43 KTOP 050808
RWRKS

WEATHER ROUNDUP FOR KANSAS
NATIONAL WEATHER SERVICE GOODLAND KS
200 AM CST THU MAR 05 2015

NOTE:  "FAIR" INDICATES FEW OR NO CLOUDS BELOW 12,000 FEET WITH NO
SIGNIFICANT WEATHER AND/OR OBSTRUCTIONS TO VISIBILITY.

KSZ001>006-013>018-027>032-041>047-050900-
NORTHWEST KANSAS

CITY           SKY/WX    TMP DP  RH WIND       PRES   REMARKS
GOODLAND       CLEAR     15   8  73 W13       30.29S WCI   1
HAYS           MOCLDY    18   0  45 W6        30.39R
HILL CITY      MOCLDY    14   5  67 VRB5      30.39R
RUSSELL        CLOUDY    15   7  70 W7        30.39R
$$

KSZ061>065-074>080-084>089-050900-
SOUTHWEST KANSAS

CITY           SKY/WX    TMP DP  RH WIND       PRES   REMARKS
DODGE CITY     CLEAR     18   6  59 SW8       30.39R
ELKHART          N/A     17  10  74 W7          N/A
GARDEN CITY    FAIR      16  12  84 W8        30.37R
GREAT BEND     CLEAR     10   1  67 W5        30.41R
LIBERAL        CLEAR     10   3  72 NW7       30.41R
PRATT          CLEAR      9   3  78 W5        30.41S
$$

KSZ066>073-081>083-090>101-050900-
SOUTHEAST KANSAS

CITY           SKY/WX    TMP DP  RH WIND       PRES   REMARKS
CHANUTE        CLEAR     18  11  74 CALM      30.43R
COFFEYVILLE    PTCLDY    22  12  65 CALM      30.44R
HUTCHINSON     CLEAR     14   6  70 CALM      30.42R
MEDICINE LODGE   N/A     14  11  87 N3        30.44R
NEWTON         CLEAR     16   3  57 NW5       30.43R
PARSONS        PTCLDY    17  12  80 N3        30.44R
WICHITA INTL   PTCLDY    18  10  71 NW6       30.43R
WICHITA JABRA  CLEAR     17   8  67 NW7       30.43R
WICHITA MCCONL CLEAR     19  11  69 NW1       30.43
WINFIELD       CLEAR     18  13  80 W3        30.45R
$$

KSZ007>012-019>026-033>040-048>060-102>105-050900-
NORTHEAST KANSAS

CITY           SKY/WX    TMP DP  RH WIND       PRES   REMARKS
CONCORDIA      CLEAR     12   3  67 NE5       30.46R
EMPORIA        CLEAR     16   8  71 N3        30.44R
LAWRENCE       CLEAR     15   3  59 W3        30.47R
MANHATTAN      CLEAR     15   4  61 NE5       30.47R
MARYSVILLE     CLEAR     10   1  67 N5        30.48R
OLATHE IND     CLEAR     13   4  67 N8        30.45R
OLATHE EXE     CLEAR     19   4  51 N6        30.43R
SALINA         CLEAR     15   5  64 N6        30.46R
TOPEKA BILLARD CLEAR     17   4  56 N10       30.48R WCI   5
TOPEKA FORBES  CLEAR     17   3  54 N6        30.45R
$$


USA.gov is the U.S. government's official web portal to all federal, state and local government web resources and services.